Regional Weather Roundup
Issued by NWS

Home | Current Version | Previous Version | Graphics & Text | Print | Product List | Glossary On
Versions: 1 2 3 4 5 6 7 8 9 10 11 12 13 14 15 16 17 18 19 20 21 22 23 24 25 26 27 28 29 30 31 32 33 34 35 36 37 38 39 40 41 42 43 44 45 46 47 48 49 50
000
ASUS45 KABQ 010101
RWRNM
WEATHER ROUNDUP FOR NEW MEXICO
NATIONAL WEATHER SERVICE ALBUQUERQUE NM
600 PM MST SAT FEB 28 2015

NOTE: "FAIR" MEANS FEW OR NO CLOUDS BELOW 12,000 FEET AGL WITH NO
       SIGNIFICANT WEATHER OR OBSTRUCTIONS TO VISION.

      THIS PRODUCT IS RELEASED AS TWO VERSIONS.  ONE VERSION NEAR
      THE TOP OF THE HOUR CONTAINING PRELIMINARY DATA FROM ALBUQUERQUE
      AND OTHER STATIONS.  A FINAL VERSION WITH ADDITIONAL DATA IS
      ISSUED ABOUT 10 MINUTES AFTER THE HOUR.

NMZ501-503-504-510>518-010200-
NORTHWEST PLATEAU/NORTHCENTRAL MOUNTAINS

CITY           SKY/WX    TMP DP  RH WIND       PRES   REMARKS
FARMINGTON     MOCLDY    33  32  96 E10       29.84R WCI  25
SANTA FE       CLOUDY    32  27  81 N3        29.92R
TAOS           CLOUDY    27  21  80 CALM      29.91R
ANGEL FIRE     LGT SNOW  34  29  82 SW14G24   29.86R WCI  24

$$
NMZ402-403-502-505>509-010200-
WESTCENTRAL MOUNTAINS/SOUTHWEST MOUNTAINS

CITY           SKY/WX    TMP DP  RH WIND       PRES   REMARKS
GALLUP         LGT RAIN  43  35  73 SW17      29.86R
SILVER CITY    MOCLDY    54  37  54 NW14G21   29.95R

$$
NMZ407-409-411-412-010200-
SOUTHERN DESERTS

CITY           SKY/WX    TMP DP  RH WIND       PRES   REMARKS
DEMING         PTCLDY    64  36  35 SW21G28   29.89R
HOLLOMAN AFB   MOCLDY    61  28  28 SE10      29.89R
ALAMOGORDO     MOCLDY    59  28  31 SE14      29.91S
T OR C         CLOUDY    60  35  39 SW16G23   29.87R

$$
NMZ519>523-010200-
CENTRAL VALLEYS/CENTRAL HIGHLANDS

CITY           SKY/WX    TMP DP  RH WIND       PRES   REMARKS
ALBUQUERQUE    MOCLDY    35  26  69 N12       29.92R WCI  27
DOUBLE EAGLE   MOCLDY    32  27  80 N7        29.91S WCI  26
MORIARTY ARPT  FAIR      32  27  80 NW5       29.92R WCI  28
CLINES CORNERS PTCLDY    37  30  75 SW14      29.90R WCI  28
BELEN          CLOUDY    36  30  79 N7        29.91R WCI  30
SOCORRO          N/A     54  32  42 SE10      29.89R

$$
NMZ524>526-539-540-010200-
SOUTHCENTRAL MOUNTAINS

CITY           SKY/WX    TMP DP  RH WIND       PRES   REMARKS
RUIDOSO        NOT AVBL

$$
NMZ527>531-010200-
NORTHEAST HIGHLANDS/NORTHEAST PLAINS

CITY           SKY/WX    TMP DP  RH WIND       PRES   REMARKS
LAS VEGAS      MOCLDY    21  20  96 SE14      29.90R FOG     WCI   8
RATON          LGT SNOW  20  16  84 NW5       29.90S FOG     WCI  13
CLAYTON        CLOUDY    22  18  85 S8        29.97R WCI  12

$$
NMZ532>537-010200-
EASTCENTRAL PLAINS

CITY           SKY/WX    TMP DP  RH WIND       PRES   REMARKS
TUCUMCARI      CLOUDY    25  21  85 SW8       30.02S WCI  16
CANNON AFB     CLOUDY    26  24  91 S12       30.02F WCI  16
CLOVIS AIRPORT CLOUDY    25  23  93 S12       30.03F WCI  14

$$
NMZ028-029-538-010200-
SOUTHEAST PLAINS

CITY           SKY/WX    TMP DP  RH WIND       PRES   REMARKS
ROSWELL        CLOUDY    29  24  82 SW5       30.05S WCI  24
ARTESIA        CLOUDY    30  28  93 SE10      30.07S WCI  21
CARLSBAD       CLOUDY    31  27  85 SE10      30.08R WCI  22
HOBBS          CLOUDY    28  28 100 SE5       30.09R FOG     WCI  23


$$



USA.gov is the U.S. government's official web portal to all federal, state and local government web resources and services.